Simultaneous Nadir Overpasses (SNOs) Predictions

Prediction of SNOs between METOP-C and LANDSAT-8 Satellite Orbit:

Table of predicted SNOs for the next 14.0 days since TLE Epoch: 7/20/2024
Index Date (METOP-C) Time (METOP-C) Lat,Lon (METOP-C) SZA (METOP-C ) Date (LANDSAT-8) Time (LANDSAT-8) Lat,Lon (LANDSAT-8) SZA (LANDSAT-8 ) Distance(km) Time Diff (sec)
1 07/20/2024 15:56:39 81.08, -20.12 62.51 07/20/2024 15:57:48 81.08, -20.11 62.54 0.33 69
2 07/20/2024 16:47:19 -81.10, 147.83 117.41 07/20/2024 16:47:14 -81.10, 147.79 117.42 0.75 5
3 07/23/2024 11:31:04 81.08, 46.25 63.07 07/23/2024 11:32:04 81.08, 46.33 63.11 1.44 60
4 07/23/2024 12:21:44 -81.10,-145.79 116.85 07/23/2024 12:21:30 -81.10,-145.75 116.85 0.60 14
5 07/26/2024 07:05:29 81.08, 112.88 63.70 07/26/2024 07:06:20 81.08, 112.81 63.72 1.15 51
6 07/26/2024 07:56:09 -81.11, -79.15 116.21 07/26/2024 07:55:46 -81.10, -79.25 116.24 1.81 23
7 07/29/2024 02:39:54 81.09, 179.37 64.37 07/29/2024 02:40:35 81.09, 179.32 64.38 0.91 41
8 07/29/2024 03:30:34 -81.11, -12.65 115.55 07/29/2024 03:30:01 -81.11, -12.72 115.57 1.26 33
9 07/31/2024 22:14:18 81.09,-114.25 65.05 07/31/2024 22:14:48 81.09,-114.13 65.08 2.20 30



Historial Predications of SNOs between METOP-C and LANDSAT-8
